�������l�o���
Date,Time,MP-1(��Sv/h),MP-2(��Sv/h),MP-3(��Sv/h),MP-4(��Sv/h),MP-5(��Sv/h),MP-6(��Sv/h),MP-7(��Sv/h),MP-8(��Sv/h),����,����(m/s),���J
2018/04/13,00:00,0.881,1.473,0.917,1.711,1.180,0.489,0.860,0.823,���k��,11.9,��
2018/04/13,00:10,0.882,1.472,0.916,1.711,1.182,0.489,0.860,0.827,��,10.8,��
2018/04/13,00:20,0.882,1.471,0.916,1.711,1.181,0.488,0.862,0.824,���k��,10.8,��
2018/04/13,00:30,0.881,1.472,0.917,1.711,1.181,0.488,0.861,0.823,��,10.9,��
2018/04/13,00:40,0.879,1.470,0.917,1.713,1.179,0.491,0.859,0.826,��,8.8,��
2018/04/13,00:50,0.881,1.471,0.917,1.713,1.180,0.490,0.858,0.825,��,7.0,��
2018/04/13,01:00,0.881,1.470,0.919,1.713,1.180,0.489,0.859,0.825,���k��,6.6,��
2018/04/13,01:10,0.882,1.470,0.916,1.713,1.180,0.488,0.861,0.825,�k��,6.6,��
2018/04/13,01:20,0.879,1.468,0.916,1.713,1.178,0.487,0.860,0.824,�k��,6.6,��
2018/04/13,01:30,0.879,1.471,0.916,1.709,1.180,0.487,0.860,0.823,�k��,6.4,��
2018/04/13,01:40,0.880,1.469,0.916,1.711,1.179,0.486,0.861,0.823,���k��,5.8,��
2018/04/13,01:50,0.881,1.470,0.916,1.711,1.177,0.488,0.860,0.824,���쐼,5.0,��
2018/04/13,02:00,0.880,1.470,0.917,1.712,1.179,0.489,0.862,0.824,��,5.8,��
2018/04/13,02:10,0.879,1.468,0.917,1.712,1.179,0.489,0.860,0.823,��,5.9,��
2018/04/13,02:20,0.880,1.473,0.914,1.711,1.177,0.488,0.861,0.824,���쐼,7.5,��
2018/04/13,02:30,0.878,1.469,0.916,1.709,1.178,0.490,0.862,0.825,���k��,4.6,��
2018/04/13,02:40,0.879,1.468,0.915,1.711,1.179,0.489,0.860,0.824,�k�k��,6.7,��
2018/04/13,02:50,0.878,1.469,0.913,1.712,1.178,0.489,0.861,0.823,�k�k��,3.5,��
2018/04/13,03:00,0.878,1.469,0.917,1.710,1.175,0.488,0.860,0.822,���k��,2.6,��
2018/04/13,03:10,0.878,1.470,0.916,1.713,1.177,0.488,0.861,0.822,���쐼,4.4,��
2018/04/13,03:20,0.878,1.471,0.915,1.712,1.179,0.487,0.860,0.823,��,5.7,��
2018/04/13,03:30,0.879,1.467,0.915,1.708,1.178,0.488,0.861,0.823,���k��,4.6,��
2018/04/13,03:40,0.878,1.471,0.915,1.710,1.178,0.488,0.860,0.825,���k��,5.6,��
2018/04/13,03:50,0.878,1.471,0.913,1.710,1.177,0.488,0.862,0.824,�k��,3.8,��
2018/04/13,04:00,0.878,1.470,0.914,1.712,1.175,0.487,0.861,0.825,�k��,5.0,��
2018/04/13,04:10,0.876,1.468,0.914,1.708,1.175,0.488,0.860,0.825,�k��,5.9,��
2018/04/13,04:20,0.878,1.469,0.912,1.710,1.177,0.488,0.861,0.822,�k��,4.5,��
2018/04/13,04:30,0.876,1.469,0.913,1.710,1.177,0.488,0.861,0.823,�k��,4.1,��
2018/04/13,04:40,0.877,1.467,0.914,1.710,1.176,0.486,0.860,0.822,�k��,3.4,��
2018/04/13,04:50,0.877,1.466,0.912,1.706,1.177,0.488,0.859,0.824,���k��,3.2,��
2018/04/13,05:00,0.876,1.468,0.916,1.710,1.178,0.487,0.859,0.824,���k��,4.4,��
2018/04/13,05:10,0.876,1.463,0.914,1.708,1.173,0.487,0.858,0.823,���k��,4.1,��
2018/04/13,05:20,0.876,1.467,0.914,1.708,1.176,0.486,0.858,0.822,���k��,3.9,��
2018/04/13,05:30,0.877,1.466,0.912,1.711,1.175,0.487,0.859,0.822,���k��,3.7,��
2018/04/13,05:40,0.875,1.468,0.913,1.708,1.176,0.487,0.859,0.822,��,3.0,��
2018/04/13,05:50,0.877,1.468,0.912,1.704,1.177,0.486,0.859,0.822,��,3.5,��
2018/04/13,06:00,0.877,1.468,0.914,1.706,1.175,0.487,0.859,0.822,��,3.1,��
2018/04/13,06:10,0.877,1.469,0.913,1.708,1.176,0.488,0.858,0.823,��,3.1,��
2018/04/13,06:20,0.877,1.466,0.913,1.706,1.176,0.486,0.859,0.822,���쐼,3.2,��
2018/04/13,06:30,0.876,1.472,0.914,1.708,1.176,0.486,0.860,0.822,���쐼,3.1,��
2018/04/13,06:40,0.876,1.467,0.914,1.707,1.174,0.487,0.860,0.823,���쐼,3.2,��
2018/04/13,06:50,0.877,1.469,0.913,1.710,1.174,0.485,0.859,0.822,���쐼,3.4,��
2018/04/13,07:00,0.877,1.471,0.913,1.706,1.176,0.486,0.861,0.823,���쐼,3.0,��
2018/04/13,07:10,0.878,1.470,0.913,1.709,1.175,0.488,0.861,0.824,���쐼,4.1,��
2018/04/13,07:20,0.879,1.469,0.913,1.709,1.178,0.488,0.861,0.823,��,4.5,��
2018/04/13,07:30,0.879,1.471,0.915,1.706,1.176,0.484,0.861,0.822,��,3.0,��
2018/04/13,07:40,0.879,1.471,0.915,1.706,1.176,0.485,0.860,0.823,��,2.5,��
2018/04/13,07:50,0.878,1.469,0.914,1.708,1.177,0.485,0.860,0.823,��,3.2,��
2018/04/13,08:00,0.879,1.469,0.914,1.709,1.178,0.486,0.859,0.823,��,4.7,��
2018/04/13,08:10,0.878,1.468,0.914,1.706,1.178,0.485,0.860,0.824,���k��,4.0,��
2018/04/13,08:20,0.879,1.469,0.915,1.706,1.179,0.485,0.858,0.824,�k��,3.6,��
2018/04/13,08:30,0.878,1.469,0.913,1.708,1.181,0.486,0.859,0.824,�k��,6.4,��
2018/04/13,08:40,0.881,1.469,0.913,1.708,1.180,0.489,0.859,0.825,�k��,8.2,��
2018/04/13,08:50,0.880,1.470,0.914,1.706,1.179,0.487,0.857,0.823,���k��,7.4,��
2018/04/13,09:00,0.879,1.468,0.913,1.708,1.179,0.486,0.858,0.825,���k��,8.4,��
2018/04/13,09:10,0.881,1.473,0.914,1.708,1.179,0.487,0.859,0.822,���k��,7.7,��
2018/04/13,09:20,0.879,1.471,0.914,1.706,1.179,0.486,0.859,0.823,�k��,5.7,��
2018/04/13,09:30,0.881,1.469,0.915,1.708,1.180,0.487,0.858,0.820,�k�k��,6.2,��
2018/04/13,09:40,0.883,1.466,0.914,1.710,1.179,0.486,0.859,0.820,�k�k��,8.5,��
2018/04/13,09:50,0.881,1.469,0.913,1.708,1.180,0.486,0.859,0.822,�k�k��,9.9,��
2018/04/13,10:00,0.880,1.468,0.911,1.711,1.180,0.487,0.858,0.823,�k�k��,9.3,��
2018/04/13,10:10,0.883,1.468,0.911,1.708,1.180,0.482,0.860,0.823,�k��,8.8,��
2018/04/13,10:20,0.880,1.468,0.915,1.709,1.180,0.484,0.859,0.824,�k��,6.3,��
2018/04/13,10:30,0.881,1.468,0.914,1.713,1.177,0.485,0.860,0.823,�k��,7.5,��
2018/04/13,10:40,0.881,1.470,0.913,1.712,1.183,0.485,0.857,0.822,�k��,9.3,��
2018/04/13,10:50,0.880,1.466,0.915,1.710,1.179,0.485,0.859,0.821,�k��,8.8,��
2018/04/13,11:00,0.879,1.464,0.912,1.711,1.177,0.485,0.859,0.821,�k��,9.8,��
2018/04/13,11:10,0.879,1.470,0.911,1.711,1.177,0.484,0.859,0.822,�k��,7.7,��
2018/04/13,11:20,0.878,1.472,0.915,1.711,1.179,0.485,0.859,0.821,�k�k��,6.5,��
2018/04/13,11:30,0.880,1.470,0.915,1.716,1.179,0.484,0.861,0.822,�k��,6.9,��
2018/04/13,11:40,0.879,1.469,0.914,1.710,1.178,0.485,0.858,0.822,�k�k��,7.5,��
2018/04/13,11:50,0.880,1.468,0.916,1.712,1.179,0.485,0.860,0.822,�k�k��,9.3,��
2018/04/13,12:00,0.881,1.471,0.913,1.713,1.180,0.486,0.858,0.824,�k��,8.5,��
2018/04/13,12:10,0.880,1.470,0.912,1.713,1.181,0.485,0.860,0.823,�k��,8.9,��
2018/04/13,12:20,0.881,1.470,0.913,1.713,1.180,0.486,0.859,0.820,�k�k��,9.8,��
2018/04/13,12:30,0.880,1.472,0.917,1.713,1.182,0.486,0.860,0.821,�k��,10.5,��
2018/04/13,12:40,0.882,1.472,0.915,1.712,1.181,0.484,0.859,0.822,�k��,10.0,��
2018/04/13,12:50,0.879,1.472,0.916,1.713,1.181,0.483,0.860,0.823,�k��,7.3,��
2018/04/13,13:00,0.881,1.470,0.914,1.715,1.181,0.484,0.861,0.821,�k��,5.5,��
2018/04/13,13:10,0.880,1.472,0.916,1.713,1.180,0.485,0.861,0.823,�k�k��,7.1,��
2018/04/13,13:20,0.882,1.470,0.913,1.716,1.180,0.485,0.860,0.820,�k��,6.6,��
2018/04/13,13:30,0.879,1.470,0.915,1.714,1.181,0.483,0.859,0.820,�k��,5.8,��
2018/04/13,13:40,0.882,1.469,0.913,1.712,1.181,0.483,0.860,0.822,�k��,6.0,��
2018/04/13,13:50,0.880,1.472,0.914,1.713,1.181,0.485,0.860,0.820,�k��,4.8,��
2018/04/13,14:00,0.882,1.474,0.916,1.716,1.181,0.484,0.861,0.822,��,4.9,��
2018/04/13,14:10,0.881,1.470,0.915,1.714,1.180,0.483,0.862,0.822,���쐼,5.9,��
2018/04/13,14:20,0.881,1.473,0.913,1.713,1.180,0.485,0.858,0.821,��,4.8,��
2018/04/13,14:30,0.879,1.471,0.913,1.716,1.183,0.486,0.859,0.823,���k��,5.6,��
2018/04/13,14:40,0.882,1.471,0.914,1.713,1.182,0.484,0.860,0.822,���k��,3.5,��
2018/04/13,14:50,0.881,1.472,0.914,1.715,1.180,0.485,0.860,0.821,�k��,4.0,��
2018/04/13,15:00,0.880,1.476,0.916,1.715,1.181,0.487,0.860,0.822,�k��,6.6,��
2018/04/13,15:10,0.882,1.475,0.917,1.716,1.181,0.486,0.859,0.822,�k��,5.0,��
2018/04/13,15:20,0.881,1.474,0.916,1.714,1.182,0.486,0.861,0.821,�k��,7.8,��
2018/04/13,15:30,0.881,1.470,0.915,1.713,1.183,0.486,0.858,0.822,�k��,6.2,��
2018/04/13,15:40,0.881,1.476,0.915,1.714,1.179,0.486,0.860,0.821,�k��,6.7,��
2018/04/13,15:50,0.880,1.475,0.912,1.714,1.181,0.487,0.859,0.821,�k��,6.5,��
2018/04/13,16:00,0.879,1.470,0.915,1.709,1.181,0.487,0.860,0.822,�k��,4.8,��
2018/04/13,16:10,0.880,1.474,0.915,1.711,1.180,0.485,0.860,0.821,�k��,6.3,��
2018/04/13,16:20,0.880,1.476,0.915,1.713,1.182,0.488,0.859,0.824,�k�k��,7.6,��
2018/04/13,16:30,0.880,1.476,0.918,1.714,1.180,0.487,0.859,0.822,�k�k��,8.4,��
2018/04/13,16:40,0.879,1.476,0.918,1.716,1.180,0.488,0.861,0.823,�k�k��,7.4,��
2018/04/13,16:50,0.879,1.477,0.919,1.718,1.179,0.487,0.859,0.823,�k�k��,9.4,��
2018/04/13,17:00,0.882,1.475,0.919,1.718,1.181,0.488,0.860,0.825,�k�k��,8.1,��
2018/04/13,17:10,0.883,1.476,0.918,1.719,1.179,0.487,0.859,0.823,�k��,7.2,��
2018/04/13,17:20,0.881,1.478,0.918,1.715,1.180,0.487,0.859,0.824,�k��,5.5,��
2018/04/13,17:30,0.883,1.475,0.918,1.717,1.181,0.486,0.859,0.826,�k��,6.2,��
2018/04/13,17:40,0.883,1.476,0.918,1.719,1.181,0.486,0.859,0.825,�k�k��,5.5,��
2018/04/13,17:50,0.882,1.473,0.917,1.713,1.183,0.487,0.859,0.824,�k�k��,4.5,��
2018/04/13,18:00,0.881,1.476,0.917,1.717,1.183,0.486,0.858,0.824,�k�k��,3.3,��
2018/04/13,18:10,0.881,1.472,0.916,1.715,1.182,0.486,0.859,0.823,�k��,4.4,��
2018/04/13,18:20,0.882,1.475,0.914,1.718,1.181,0.487,0.859,0.824,�k�k��,4.0,��
2018/04/13,18:30,0.882,1.475,0.915,1.718,1.183,0.485,0.860,0.823,�k�k��,4.6,��
2018/04/13,18:40,0.882,1.477,0.916,1.713,1.181,0.484,0.859,0.822,�k�k��,4.2,��
2018/04/13,18:50,0.881,1.477,0.916,1.716,1.182,0.486,0.861,0.824,�k��,4.5,��
2018/04/13,19:00,0.882,1.473,0.915,1.715,1.184,0.484,0.859,0.823,�k��,5.1,��
2018/04/13,19:10,0.881,1.476,0.915,1.714,1.184,0.485,0.860,0.822,�k��,5.6,��
2018/04/13,19:20,0.879,1.476,0.916,1.715,1.182,0.486,0.862,0.822,�k��,4.4,��
2018/04/13,19:30,0.879,1.475,0.916,1.714,1.183,0.484,0.858,0.824,�k��,4.3,��
2018/04/13,19:40,0.880,1.477,0.916,1.711,1.182,0.486,0.859,0.822,�k�k��,4.5,��
2018/04/13,19:50,0.881,1.473,0.916,1.712,1.183,0.485,0.862,0.822,�k�k��,5.1,��
2018/04/13,20:00,0.880,1.476,0.914,1.717,1.181,0.486,0.860,0.821,�k�k��,5.4,��
2018/04/13,20:10,0.881,1.476,0.915,1.716,1.181,0.485,0.860,0.824,�k��,7.1,��
2018/04/13,20:20,0.877,1.473,0.914,1.714,1.182,0.486,0.861,0.822,�k��,5.3,��
2018/04/13,20:30,0.879,1.474,0.914,1.713,1.181,0.484,0.858,0.823,�k�k��,3.1,��
2018/04/13,20:40,0.881,1.474,0.915,1.714,1.182,0.485,0.860,0.821,�k�k��,3.9,��
2018/04/13,20:50,0.879,1.472,0.916,1.712,1.180,0.485,0.860,0.822,�k,4.1,��
2018/04/13,21:00,0.879,1.474,0.916,1.713,1.181,0.486,0.860,0.822,�k,4.2,��
2018/04/13,21:10,0.879,1.475,0.915,1.715,1.183,0.483,0.860,0.822,�k,5.4,��
2018/04/13,21:20,0.877,1.474,0.916,1.714,1.182,0.485,0.860,0.823,�k,5.1,��
2018/04/13,21:30,0.878,1.476,0.914,1.714,1.181,0.485,0.861,0.821,�k,4.9,��
2018/04/13,21:40,0.879,1.472,0.916,1.713,1.177,0.484,0.861,0.824,�k�k��,4.6,��
2018/04/13,21:50,0.879,1.476,0.913,1.713,1.183,0.485,0.861,0.824,�k,4.1,��
2018/04/13,22:00,0.877,1.470,0.914,1.711,1.179,0.484,0.858,0.823,�k,3.9,��
2018/04/13,22:10,0.879,1.473,0.915,1.714,1.180,0.484,0.860,0.822,�k,5.4,��
2018/04/13,22:20,0.879,1.473,0.914,1.715,1.180,0.484,0.858,0.822,�k,5.6,��
2018/04/13,22:30,0.878,1.472,0.915,1.714,1.181,0.484,0.860,0.822,�k�k��,5.5,��
2018/04/13,22:40,0.878,1.473,0.914,1.712,1.180,0.485,0.859,0.821,�k�k��,5.8,��
2018/04/13,22:50,0.877,1.477,0.914,1.712,1.178,0.484,0.861,0.822,�k,6.2,��
2018/04/13,23:00,0.878,1.470,0.913,1.715,1.180,0.485,0.858,0.822,�k��,5.1,��
2018/04/13,23:10,0.877,1.471,0.914,1.712,1.180,0.483,0.859,0.821,�k��,5.5,��
2018/04/13,23:20,0.878,1.474,0.912,1.711,1.182,0.483,0.858,0.823,���k��,6.2,��
2018/04/13,23:30,0.879,1.473,0.914,1.715,1.179,0.483,0.857,0.822,�k��,5.2,��
2018/04/13,23:40,0.877,1.471,0.914,1.711,1.177,0.482,0.859,0.824,�k�k��,1.5,��
2018/04/13,23:50,0.877,1.472,0.914,1.711,1.180,0.484,0.859,0.822,�k��,1.5,��
